Temperature
9 9 9 9 9 9 9 9 10 10 10 9 9 9 9 9 9 9 9 9 9 9 9 9 9 9 8 8 8 8 8 8 8 8 8 8 8 8 8 8 8 8 8
8 8 8 8 9 9 9 9 9 9 9 9 9 9 9 9 9 9 9 9 9 9 8 8 8 8 8 8 8 8 8 7 7 7 6 6 7 7 7 7 7 7 7
8 8 8 8 8 8 9 9 9 9 9 9 9 8 8 8 8 8 8 8 8 8 8 8 8 7 7 7 7 7 7 7 6 6 6 6 6 6 6 6 6 6 6
7 7 7 8 8 8 8 8 8 9 8 8 8 8 8 8 8 8 8 8 8 8 8 7 7 7 7 7 7 7 6 6 6 5 5 5 5 5 5 5 6 6 6
7 7 7 7 7 8 8 8 8 8 8 8 8 8 8 7 7 7 7 7 7 7 7 7 7 7 7 6 6 6 6 6 5 5 5 4 4 4 4 5 5 5 5
6 6 6 6 7 7 7 7 8 8 8 8 8 7 7 7 7 7 7 7 7 7 7 6 6 6 6 6 6 6 5 5 5 4 4 4 4 4 4 4 4 4 4
5 5 6 6 6 7 7 7 7 7 7 7 7 7 7 7 7 6 6 6 6 6 6 6 6 6 6 5 5 5 5 5 4 4 4 4 3 3 3 3 3 3 3
5 5 5 5 6 6 6 6 6 7 7 7 7 7 6 6 6 6 6 6 6 5 6 6 5 5 5 5 5 5 4 4 4 4 3 3 3 3 3 3 3 2 3
4 4 5 5 5 6 6 6 6 6 6 6 6 6 6 6 6 5 5 5 5 5 5 5 5 5 5 5 4 4 4 4 3 3 3 3 3 2 2 2 2 2 2
4 4 4 5 5 5 5 5 5 5 6 6 6 5 5 5 5 5 5 4 4 4 4 4 4 4 4 4 4 4 3 3 3 3 3 2 2 2 2 2 2 1 1
4 4 4 4 4 4 5 5 5 5 5 5 5 5 5 5 5 4 4 4 4 4 4 4 4 3 3 3 3 3 3 3 2 2 2 2 2 2 2 1 1 1 1
3 3 3 3 4 4 4 4 4 4 4 4 4 4 4 4 4 4 4 3 3 3 3 3 3 3 3 3 3 2 2 2 2 2 2 1 1 1 1 1 1 1 0
3 3 3 3 3 3 4 4 4 4 4 4 4 4 4 4 3 3 3 3 3 3 3 2 2 2 2 2 2 2 2 1 1 1 1 1 1 0 0 0 0 -0 -0
2 2 2 3 3 3 3 3 3 3 3 3 3 3 3 3 3 3 3 2 2 2 2 2 2 2 1 1 1 1 1 1 1 1 1 0 0 -0 -0 -0 -1 -1 -1
2 2 2 2 2 2 3 3 3 3 3 2 2 2 2 2 2 2 2 2 2 1 1 1 1 1 1 1 1 1 1 0 0 0 -0 -0 -0 -0 -1 -1 -1 -1 -1
2 2 2 2 2 2 2 2 2 2 2 2 2 2 2 1 1 1 1 1 1 1 1 1 0 0 0 0 0 0 -0 -0 -0 -0 -1 -1 -1 -1 -1 -1 -1 -1 -2
1 1 2 2 2 2 2 2 2 1 1 1 1 1 1 1 1 1 0 0 0 0 0 0 -0 -0 -0 -0 -0 -0 -1 -1 -1 -1 -1 -1 -1 -1 -1 -1 -1 -2 -2
1 1 1 1 1 1 1 1 1 1 1 1 1 1 0 0 0 0 -0 -0 -0 -0 -0 -0 -1 -1 -1 -1 -1 -1 -1 -1 -1 -2 -2 -2 -2 -2 -2 -2 -2 -2 -2
1 1 1 1 1 1 1 1 1 0 0 0 0 0 -0 -0 -0 -0 -1 -1 -1 -1 -1 -1 -1 -1 -1 -1 -1 -2 -2 -2 -2 -2 -2 -2 -2 -2 -2 -3 -3 -3 -3
1 1 1 0 0 0 0 0 0 -0 -0 -0 -0 -0 -1 -1 -1 -1 -1 -1 -1 -1 -1 -2 -2 -2 -2 -2 -2 -2 -2 -2 -2 -3 -3 -3 -3 -3 -3 -3 -3 -3 -3
0 0 0 0 0 -0 -0 -0 -0 -0 -1 -1 -1 -1 -1 -1 -2 -2 -2 -2 -2 -2 -2 -2 -2 -2 -2 -2 -2 -2 -3 -3 -3 -3 -3 -3 -3 -3 -3 -3 -4 -4 -4
-0 -0 -0 -0 -1 -1 -1 -1 -1 -1 -1 -1 -2 -2 -2 -2 -2 -2 -2 -2 -3 -3 -3 -3 -3 -3 -3 -3 -3 -3 -3 -3 -3 -3 -3 -3 -3 -4 -4 -4 -4 -4 -4
-1 -1 -1 -1 -1 -1 -2 -2 -2 -2 -2 -2 -2 -2 -2 -2 -3 -3 -3 -3 -3 -3 -3 -3 -3 -3 -3 -3 -3 -3 -3 -4 -4 -4 -4 -4 -4 -4 -4 -4 -4 -4 -5
-1 -1 -1 -1 -2 -2 -2 -2 -2 -2 -3 -3 -3 -3 -3 -3 -3 -3 -3 -3 -3 -3 -4 -4 -4 -4 -4 -4 -4 -4 -4 -4 -4 -4 -4 -4 -4 -5 -5 -5 -5 -5 -5
-2 -2 -2 -2 -2 -2 -3 -3 -3 -3 -3 -3 -3 -3 -3 -4 -4 -4 -4 -4 -4 -4 -4 -4 -4 -4 -4 -4 -4 -4 -4 -5 -5 -5 -5 -5 -5 -5 -5 -5 -5 -5 -5
-3 -3 -3 -3 -3 -3 -3 -3 -3 -4 -4 -4 -4 -4 -4 -4 -4 -4 -4 -4 -4 -4 -5 -5 -5 -5 -5 -5 -5 -5 -5 -5 -5 -5 -5 -5 -5 -6 -6 -6 -6 -6 -6
Wind_Speed
7 5 5 5 5 5 6 6 7 6 5 4 4 3 3 2 1 2 2 2 2 2 2 1 1 1 1 0 1 1 1 1 2 2 3 3 3 3 2 3 3 2 3
8 7 6 6 6 6 5 6 6 7 6 5 4 3 3 2 1 1 2 1 1 2 2 1 1 1 1 1 1 1 1 1 1 2 3 3 3 2 3 3 3 3 3
10 9 8 8 7 7 7 6 7 7 6 6 4 3 2 2 2 1 1 1 1 1 2 1 1 1 2 2 2 2 2 1 1 1 2 2 3 4 3 3 3 3 4
10 9 9 8 8 7 6 6 7 7 7 6 6 6 4 4 3 2 2 2 2 2 1 1 2 1 1 2 2 2 2 3 2 2 2 3 3 3 3 3 3 5 5
9 8 8 8 7 6 6 6 6 7 7 7 7 7 5 3 2 2 2 2 1 2 1 1 2 2 2 2 2 3 3 3 3 3 2 3 3 4 5 5 5 5 4
6 7 6 6 6 5 5 5 6 5 6 6 7 7 7 5 4 3 3 2 1 1 1 2 2 2 2 2 3 3 3 3 3 3 3 3 3 3 4 6 7 7 5
5 5 5 6 5 5 5 5 6 5 5 6 6 7 7 6 5 4 3 3 2 2 2 2 2 2 2 3 3 3 3 4 4 4 3 3 4 3 4 5 6 7 6
4 5 5 5 5 5 5 5 6 5 5 5 5 6 6 5 4 4 3 3 2 2 2 2 2 2 3 3 3 3 3 3 4 4 4 4 3 3 4 4 5 6 5
4 4 4 5 5 6 6 5 5 5 5 5 5 5 5 5 4 4 3 2 2 2 2 2 2 2 2 3 3 3 3 3 3 4 4 3 3 3 3 3 4 4 5
3 3 3 4 4 5 5 4 4 4 4 4 4 4 4 4 4 4 3 3 3 2 3 2 2 2 2 2 2 2 3 3 3 3 3 3 3 3 3 3 4 4 6
3 3 3 3 3 4 4 4 4 4 4 4 4 4 4 4 4 4 4 3 3 3 3 2 2 2 2 2 2 2 3 3 3 3 3 3 3 3 3 3 3 4 5
2 2 2 2 3 4 4 4 4 4 4 3 3 3 3 3 4 4 3 3 3 3 3 3 3 3 3 2 3 3 3 3 3 3 3 4 3 4 4 3 4 4 5
2 2 2 3 3 3 3 3 3 3 3 4 3 3 2 3 3 3 3 3 3 2 2 2 2 2 2 2 3 3 3 3 3 3 3 4 4 4 4 4 4 4 4
3 3 3 3 3 3 3 3 3 3 3 3 3 3 3 2 2 3 3 3 2 2 2 2 2 2 2 2 2 2 3 3 3 3 3 4 4 5 5 4 5 4 5
4 4 4 3 3 3 3 3 3 3 3 3 3 3 2 2 1 1 2 2 2 2 2 2 2 3 3 3 3 3 3 3 3 3 3 4 4 5 5 4 4 4 4
5 4 4 4 4 4 3 3 3 3 3 3 3 2 2 2 2 2 1 1 1 2 2 2 3 3 2 3 4 3 3 4 4 4 3 4 4 4 4 5 5 6 5
6 5 4 4 4 4 3 3 3 3 3 3 3 2 2 2 2 2 2 2 2 2 2 2 3 3 3 3 4 4 4 4 4 4 4 3 3 4 4 4 5 5 6
6 5 4 4 3 3 3 3 3 3 3 3 3 3 3 2 2 2 2 2 2 2 2 2 2 2 2 3 4 3 3 3 3 4 4 4 4 4 4 4 5 5 5
5 4 4 3 3 3 3 3 3 3 3 3 3 3 3 3 3 2 2 2 2 2 2 2 3 3 3 3 3 3 2 2 3 3 4 4 5 5 6 5 5 5 5
3 3 2 2 2 2 3 3 3 3 3 3 2 2 3 3 3 3 2 2 2 2 2 2 2 3 3 3 4 4 2 3 3 3 3 5 5 6 6 4 4 5 6
2 2 1 1 2 2 3 3 3 3 3 2 2 2 2 3 3 3 3 3 2 2 2 2 2 3 3 3 4 4 3 3 3 3 3 3 4 6 6 6 5 6 6
2 1 1 1 1 2 3 3 3 3 2 2 2 2 2 2 2 3 3 3 3 3 3 2 2 2 2 3 3 4 4 4 3 3 3 3 4 5 6 5 6 6 6
2 1 1 1 1 2 3 3 3 2 2 2 2 2 2 2 2 3 3 3 3 3 2 2 2 2 2 2 3 4 4 4 4 3 4 4 5 6 5 5 6 6 4
2 1 1 1 1 2 2 2 2 2 3 3 2 2 2 2 2 2 3 3 3 3 3 3 3 2 2 2 2 2 2 3 3 3 3 4 5 5 5 5 4 4 3
2 1 2 2 2 1 1 1 2 2 3 3 3 2 2 2 2 2 3 3 3 3 3 3 3 3 3 3 3 3 3 3 3 3 2 3 3 3 3 3 3 3 3
2 2 2 2 2 1 1 1 1 2 3 3 3 2 2 2 2 2 2 3 4 4 5 5 5 4 5 5 5 5 5 5 5 4 3 3 3 3 3 3 4 4 4
Wind_Direction
229 221 217 212 204 199 195 187 182 172 167 166 169 166 170 167 145 131 136 171 175 169 162 154 155 168 199 221 259 284 297 314 317 299 295 280 268 277 291 292 293 309 319
224 221 215 209 206 201 199 195 190 184 179 178 176 176 172 171 162 141 148 164 180 180 181 184 184 201 205 213 250 265 276 300 315 306 300 287 253 259 274 283 286 297 312
221 217 214 211 208 207 207 204 196 189 186 180 163 149 149 154 179 185 180 170 165 177 183 193 204 212 212 217 224 235 249 265 276 296 292 286 278 303 260 272 276 292 301
226 220 213 212 212 211 209 208 201 191 188 183 180 181 190 199 208 207 206 188 192 190 188 202 212 221 228 228 230 231 243 241 246 264 272 282 292 280 287 268 276 293 294
225 222 216 214 213 208 204 205 201 194 188 188 189 188 195 202 189 187 197 199 196 201 197 208 224 225 232 234 241 244 243 244 249 256 270 271 274 271 272 283 292 292 289
224 220 216 210 207 202 196 196 192 191 187 186 189 192 190 189 183 187 192 210 216 222 219 217 222 238 246 240 243 245 244 248 251 257 260 268 269 278 272 278 288 292 295
218 211 206 207 204 199 192 190 184 183 183 186 189 191 189 186 192 197 197 203 220 235 228 232 234 234 238 240 244 245 249 250 248 248 257 263 267 278 280 280 288 292 297
219 217 213 211 207 201 192 187 187 184 183 184 187 187 186 188 192 196 199 206 220 227 234 238 249 249 241 239 240 246 248 249 250 252 255 261 266 272 274 279 287 291 289
224 226 223 213 205 201 196 191 189 188 187 187 181 182 182 183 182 185 191 201 208 218 221 232 240 253 252 243 236 239 246 250 253 255 255 256 265 271 273 273 273 275 282
234 237 232 218 207 200 193 188 187 188 189 188 184 182 184 184 183 186 192 197 205 216 219 224 232 243 246 247 240 244 246 248 257 260 256 257 264 266 266 263 267 269 270
232 236 235 222 201 190 184 181 182 182 185 186 183 181 185 184 184 192 198 201 203 210 218 224 229 238 242 243 240 247 247 244 251 252 253 258 263 265 269 269 268 271 273
252 252 236 213 194 190 187 185 184 182 184 182 176 184 188 185 190 196 201 201 202 207 215 219 226 236 241 241 242 243 245 247 250 251 254 260 259 262 267 268 271 272 274
259 263 242 217 205 199 194 192 188 184 181 174 170 169 190 193 197 196 197 200 198 198 209 215 226 237 241 241 240 239 245 251 254 255 256 262 261 264 267 271 274 278 281
259 260 243 225 213 206 198 194 192 185 181 176 175 182 190 192 200 197 197 195 193 194 205 218 232 242 244 241 242 248 250 257 264 266 262 263 263 267 272 273 278 284 287
269 260 243 227 215 211 202 194 193 191 188 180 184 192 185 182 183 189 195 194 194 200 207 216 227 237 241 238 239 249 255 257 260 268 269 270 275 278 281 281 285 287 284
273 266 240 226 219 213 206 198 199 198 191 187 193 188 180 179 185 190 191 199 206 210 214 224 229 238 242 236 247 253 258 260 262 268 276 279 272 272 278 285 289 291 286
277 272 253 237 234 225 212 208 208 201 193 193 193 192 187 189 192 183 191 206 214 219 224 229 231 242 241 242 253 253 260 258 264 268 272 280 284 284 283 290 288 289 288
272 269 267 257 249 236 221 211 199 195 195 196 195 197 194 196 197 196 205 218 222 222 227 228 233 235 239 243 250 255 258 261 265 267 269 272 280 283 285 285 286 288 289
274 275 274 264 249 228 208 192 192 195 197 202 205 207 201 197 201 209 217 220 224 232 236 237 240 244 248 245 249 266 265 260 267 269 270 270 276 282 286 282 285 289 295
296 296 287 263 233 222 195 187 194 197 209 215 216 211 207 203 209 215 219 226 226 237 242 247 250 250 254 248 254 266 258 262 272 277 275 267 272 284 288 282 284 290 296
309 299 269 245 229 207 191 197 200 214 220 213 208 207 208 210 214 214 217 218 219 225 232 241 251 250 250 249 254 265 261 258 264 268 273 272 274 284 288 288 287 290 297
317 301 265 266 247 207 196 203 218 221 205 196 199 209 216 212 212 209 215 218 215 220 227 236 253 259 258 256 255 261 260 262 259 263 271 279 288 292 292 293 296 299 299
305 292 260 263 258 224 207 212 226 205 195 198 207 211 214 219 218 216 215 217 220 223 229 236 247 260 267 258 256 261 258 261 263 267 276 286 291 294 290 290 294 294 291
301 286 242 243 265 250 234 222 215 200 194 201 211 211 210 218 223 224 220 220 222 225 226 236 248 258 264 268 270 262 256 253 260 268 276 287 292 290 288 290 289 283 284
289 254 234 247 265 268 252 234 208 196 200 206 209 213 216 217 222 231 232 232 236 236 235 237 241 251 260 264 263 272 266 260 260 266 270 273 279 282 284 287 289 285 283
276 260 252 254 264 264 262 259 229 204 199 207 212 216 218 222 226 230 245 241 245 249 255 258 257 258 261 268 264 264 268 265 261 262 263 265 269 274 278 283 285 283 283
Height
1514 1515 1515 1516 1518 1519 1521 1522 1524 1526 1527 1528 1529 1530 1531 1532 1533 1534 1535 1536 1537 1537 1537 1537 1537 1537 1537 1537 1537 1537 1536 1536 1535 1534 1533 1532 1531 1531 1530 1529 1528 1527 1526
1510 1511 1512 1513 1514 1516 1517 1519 1521 1522 1524 1526 1527 1528 1529 1530 1531 1531 1532 1533 1534 1534 1535 1535 1535 1535 1535 1535 1535 1534 1534 1534 1533 1533 1532 1531 1531 1528 1527 1526 1525 1525 1524
1506 1507 1508 1509 1510 1512 1514 1515 1517 1519 1521 1523 1525 1526 1527 1527 1528 1528 1529 1530 1531 1531 1532 1532 1532 1532 1532 1532 1532 1532 1532 1531 1531 1531 1532 1531 1529 1527 1525 1524 1523 1522 1521
1502 1503 1504 1505 1506 1508 1510 1512 1514 1515 1517 1519 1521 1522 1523 1524 1525 1526 1526 1527 1528 1528 1528 1529 1529 1529 1529 1529 1529 1529 1529 1529 1529 1528 1528 1529 1528 1527 1524 1522 1521 1520 1518
1497 1498 1500 1501 1503 1505 1506 1508 1510 1512 1514 1516 1517 1519 1520 1521 1522 1523 1523 1523 1524 1525 1525 1525 1525 1526 1526 1526 1526 1526 1526 1526 1526 1525 1525 1525 1525 1524 1523 1520 1518 1516 1515
1494 1495 1497 1498 1500 1501 1503 1504 1506 1508 1509 1511 1513 1515 1517 1518 1519 1520 1520 1521 1521 1521 1522 1522 1522 1522 1522 1522 1523 1523 1523 1522 1522 1522 1522 1522 1522 1521 1520 1518 1515 1513 1511
1491 1491 1493 1494 1496 1497 1499 1501 1502 1504 1506 1508 1510 1512 1513 1514 1516 1516 1517 1518 1518 1518 1518 1519 1518 1518 1518 1518 1519 1519 1519 1519 1519 1518 1518 1518 1518 1517 1517 1516 1513 1510 1507
1488 1489 1490 1491 1492 1494 1495 1497 1498 1500 1502 1504 1506 1508 1509 1510 1511 1512 1513 1514 1514 1515 1515 1515 1515 1514 1514 1515 1515 1514 1515 1515 1514 1514 1514 1514 1513 1513 1513 1512 1510 1507 1504
1485 1486 1487 1488 1489 1490 1492 1493 1495 1497 1499 1501 1502 1504 1505 1506 1507 1509 1510 1510 1511 1511 1511 1511 1511 1511 1511 1511 1511 1511 1511 1511 1511 1510 1510 1509 1509 1509 1508 1508 1507 1506 1502
1483 1484 1484 1485 1486 1488 1489 1491 1492 1494 1495 1497 1498 1500 1502 1503 1504 1505 1506 1507 1507 1507 1507 1507 1507 1507 1507 1507 1507 1507 1507 1507 1506 1506 1506 1505 1505 1504 1504 1503 1502 1501 1500
1482 1482 1482 1483 1483 1485 1486 1488 1489 1491 1492 1494 1495 1496 1498 1499 1500 1501 1502 1503 1503 1504 1504 1503 1503 1503 1503 1503 1503 1503 1503 1502 1502 1502 1501 1501 1501 1500 1500 1499 1498 1497 1496
1481 1480 1480 1480 1481 1482 1483 1485 1486 1487 1489 1490 1491 1493 1494 1495 1496 1497 1498 1499 1499 1499 1499 1499 1500 1500 1500 1499 1499 1499 1499 1499 1498 1498 1497 1497 1497 1496 1495 1495 1493 1492 1491
1479 1478 1478 1478 1479 1480 1481 1482 1483 1484 1486 1487 1488 1489 1490 1492 1493 1494 1494 1495 1495 1495 1495 1496 1496 1496 1496 1496 1496 1495 1495 1495 1494 1494 1494 1493 1493 1492 1491 1490 1489 1488 1487
1477 1477 1476 1476 1477 1478 1479 1479 1480 1481 1482 1484 1485 1486 1487 1487 1489 1490 1490 1491 1491 1491 1492 1492 1492 1492 1492 1492 1492 1492 1491 1491 1491 1490 1490 1489 1489 1488 1487 1486 1485 1484 1482
1475 1474 1474 1474 1475 1475 1476 1477 1478 1479 1480 1481 1482 1483 1483 1484 1485 1486 1486 1486 1487 1488 1488 1488 1489 1489 1489 1489 1488 1488 1488 1487 1487 1486 1486 1485 1485 1484 1483 1482 1481 1480 1479
1472 1472 1472 1472 1472 1473 1473 1474 1475 1476 1477 1478 1479 1480 1481 1482 1482 1482 1482 1483 1484 1484 1485 1485 1485 1485 1485 1485 1485 1485 1484 1484 1483 1483 1482 1482 1481 1480 1479 1478 1477 1476 1475
1469 1469 1469 1469 1470 1470 1470 1471 1472 1473 1474 1475 1476 1477 1478 1479 1479 1479 1479 1480 1481 1481 1481 1482 1482 1482 1481 1481 1481 1481 1480 1480 1480 1479 1478 1478 1477 1476 1475 1474 1473 1472 1471
1467 1466 1466 1467 1467 1468 1468 1469 1470 1470 1471 1472 1473 1474 1475 1475 1476 1476 1477 1477 1478 1478 1478 1478 1478 1478 1478 1478 1478 1478 1477 1476 1476 1475 1475 1474 1473 1472 1471 1470 1469 1468 1466
1465 1464 1464 1464 1464 1465 1465 1466 1466 1467 1468 1469 1470 1471 1471 1472 1473 1473 1474 1474 1475 1475 1475 1475 1475 1474 1474 1475 1474 1474 1473 1473 1472 1471 1471 1471 1470 1469 1468 1467 1465 1464 1463
1463 1462 1461 1461 1461 1462 1462 1463 1463 1464 1465 1466 1467 1467 1468 1469 1470 1470 1471 1471 1472 1472 1472 1471 1471 1471 1471 1471 1471 1471 1470 1469 1468 1468 1467 1467 1466 1465 1464 1463 1462 1460 1459
1460 1460 1459 1459 1459 1459 1460 1460 1461 1461 1462 1463 1464 1464 1465 1466 1467 1467 1467 1468 1468 1469 1469 1468 1468 1468 1468 1468 1467 1467 1467 1466 1465 1464 1464 1463 1462 1461 1460 1460 1459 1457 1456
1458 1457 1457 1456 1456 1457 1457 1457 1458 1459 1460 1460 1461 1461 1462 1463 1464 1464 1464 1465 1465 1465 1465 1465 1465 1465 1464 1464 1463 1463 1463 1463 1462 1461 1461 1460 1459 1458 1457 1456 1455 1454 1453
1456 1455 1455 1454 1454 1454 1455 1455 1455 1456 1456 1457 1458 1459 1459 1460 1461 1461 1461 1461 1462 1462 1462 1462 1462 1461 1461 1461 1460 1460 1460 1459 1459 1458 1457 1457 1455 1455 1453 1453 1452 1451 1450
1454 1453 1452 1452 1452 1452 1452 1452 1453 1453 1454 1454 1455 1456 1457 1457 1457 1458 1458 1458 1458 1458 1459 1459 1458 1458 1458 1458 1457 1457 1456 1456 1455 1455 1454 1453 1452 1451 1450 1449 1448 1447 1446
1452 1451 1451 1450 1450 1450 1450 1450 1450 1451 1451 1451 1452 1453 1454 1454 1454 1455 1455 1455 1455 1456 1456 1455 1455 1455 1454 1455 1455 1454 1453 1453 1452 1452 1451 1450 1449 1448 1447 1446 1445 1444 1443
1449 1449 1448 1448 1448 1448 1448 1448 1448 1448 1449 1449 1449 1450 1451 1451 1451 1451 1452 1452 1452 1452 1452 1452 1452 1452 1452 1451 1451 1451 1450 1450 1449 1449 1448 1447 1446 1445 1444 1443 1442 1441 1440